Weather History for Molokai, HI

Change the Weather History Date:

Friday, February 1, 2013

  Actual Average Record
Temperature  
Mean Temperature 72 °F -  
Max Temperature 75 °F 77 °F 85 °F (1970)
Min Temperature 68 °F 63 °F 55 °F (1982)
Cooling Degree Days 6    
Growing Degree Days 22 (Base 50)    
Moisture  
Dew Point 59 °F    
Average Humidity 67    
Maximum Humidity 78    
Minimum Humidity 52    
Precipitation  
Precipitation 0.00 in - - ()
Sea Level Pressure  
Sea Level Pressure 30.10 in    
Wind  
Wind Speed 15 mph (NE)    
Max Wind Speed 22 mph    
Max Gust Speed 33 mph    
Visibility 10 miles    
Events      
Averages and records for this station are not official NWS values.
T = Trace of Precipitation, MM = Missing Value Source: NWS Daily Summary

Daily Weather History Graph

Daily Weather History Graph

Search for Another Location

Airport:

Trip Planner

Search our weather history database for the weather conditions in past years. The results will help you decide how hot, cold, wet, or windy it might be!

Date:

Astronomy

Feb. 01, 2013 Rise Set
Actual Time 7:05 AM HST 6:19 PM HST
Civil Twilight 6:42 AM HST 6:42 PM HST
Nautical Twilight 6:15 AM HST 7:08 PM HST
Astronomical Twilight 5:49 AM HST 7:35 PM HST
Moon 11:42 PM HST (2/1) 10:36 AM HST (2/1)
Length of Visible Light 12h 00m
Length of Day
11h 13m
Waning Gibbous, 68% of the Moon is Illuminated
Feb 1
Waning Gibbous
Feb 3
Last Quarter
Feb 9
New
Feb 17
First Quarter
Feb 25
Full

Hourly Weather History & Observations

Time (HST) Temp. Dew Point Humidity Pressure Visibility Wind Dir Wind Speed Gust Speed Precip Events Conditions
12:54 AM 69.1 °F 62.1 °F 78% 30.09 in 10.0 mi NNE 18.4 mph 29.9 mph N/A   Clear
1:54 AM 69.1 °F 62.1 °F 78% 30.08 in 10.0 mi NNE 17.3 mph 28.8 mph N/A   Partly Cloudy
2:54 AM 69.1 °F 61.0 °F 75% 30.09 in 10.0 mi NE 12.7 mph 19.6 mph N/A   Scattered Clouds
3:42 AM 69.8 °F 60.8 °F 73% 30.08 in 10.0 mi NE 8.1 mph - N/A   Mostly Cloudy
3:54 AM 69.1 °F 61.0 °F 75% 30.08 in 10.0 mi NE 11.5 mph 18.4 mph N/A   Mostly Cloudy
4:54 AM 69.1 °F 61.0 °F 75% 30.09 in 10.0 mi NNE 11.5 mph 21.9 mph N/A   Mostly Cloudy
5:54 AM 68.0 °F 59.0 °F 73% 30.10 in 10.0 mi NNE 10.4 mph 21.9 mph N/A   Mostly Cloudy
6:22 AM 68.0 °F 57.2 °F 68% 30.09 in 10.0 mi NNE 11.5 mph 23.0 mph N/A   Scattered Clouds
6:54 AM 68.0 °F 57.0 °F 68% 30.10 in 10.0 mi NE 15.0 mph 23.0 mph N/A   Partly Cloudy
7:54 AM 69.1 °F 57.0 °F 65% 30.11 in 10.0 mi NNE 18.4 mph 28.8 mph N/A   Partly Cloudy
8:54 AM 71.1 °F 55.9 °F 59% 30.12 in 10.0 mi NE 20.7 mph 31.1 mph N/A   Clear
9:54 AM 72.0 °F 55.9 °F 57% 30.14 in 10.0 mi NE 19.6 mph 33.4 mph N/A   Clear
10:54 AM 73.9 °F 55.9 °F 53% 30.14 in 10.0 mi NNE 18.4 mph 33.4 mph N/A   Partly Cloudy
11:54 AM 73.9 °F 57.0 °F 55% 30.12 in 10.0 mi NNE 21.9 mph 32.2 mph N/A   Clear
12:54 PM 75.0 °F 57.0 °F 53% 30.11 in 10.0 mi NE 19.6 mph 32.2 mph N/A   Clear
1:54 PM 75.9 °F 57.0 °F 52% 30.09 in 10.0 mi NE 18.4 mph 25.3 mph N/A   Clear
2:54 PM 75.0 °F 57.9 °F 55% 30.07 in 10.0 mi NE 17.3 mph 28.8 mph N/A   Partly Cloudy
3:54 PM 73.9 °F 62.1 °F 66% 30.07 in 10.0 mi NNE 15.0 mph 25.3 mph N/A   Clear
4:54 PM 73.9 °F 61.0 °F 64% 30.08 in 10.0 mi NE 12.7 mph 24.2 mph N/A   Clear
5:54 PM 71.1 °F 61.0 °F 70% 30.10 in 10.0 mi NE 16.1 mph 27.6 mph N/A   Clear
6:54 PM 69.1 °F 60.1 °F 73% 30.11 in 10.0 mi Variable 4.6 mph 16.1 mph N/A   Partly Cloudy
7:54 PM 70.0 °F 59.0 °F 68% 30.13 in 10.0 mi ENE 13.8 mph 21.9 mph N/A   Clear
8:54 PM 70.0 °F 60.1 °F 71% 30.15 in 10.0 mi ENE 9.2 mph 23.0 mph N/A   Partly Cloudy
9:54 PM 70.0 °F 61.0 °F 73% 30.14 in 10.0 mi NE 11.5 mph 23.0 mph N/A   Partly Cloudy
10:54 PM 70.0 °F 61.0 °F 73% 30.13 in 10.0 mi NE 10.4 mph 19.6 mph N/A   Clear
11:54 PM 70.0 °F 59.0 °F 68% 30.11 in 10.0 mi NE 11.5 mph - N/A   Clear